GW5131 Weather Reports


Display with metric or nautical units.
time (UTC)temp
F
wind
direction
speed
MPH
gust
MPH
rain 1hr
in
rain 24hr
in
rain mn
in
humidity
%
barometer
mb
20260903211905 91 158 1.0 4.0 0.00 0.00 0.00 67 980.4
20260903211401 91 313 3.0 4.0 0.00 0.00 0.00 61 980.3
20260903210857 91 78 2.0 2.0 0.00 0.00 0.00 62 980.3
20260903210356 91 156 4.0 4.0 0.00 0.00 0.00 63 980.6
20260903205856 93 167 2.0 4.0 0.00 0.00 0.00 62 980.7
20260903205355 93 204 2.0 3.0 0.00 0.00 0.00 66 980.8
20260903204850 92 86 1.0 3.0 0.00 0.00 0.00 69 980.8
20260903204347 90 110 0.0 1.0 0.00 0.00 0.00 65 980.9
20260903203842 91 107 3.0 3.0 0.00 0.00 0.00 66 981.0
20260903203338 92 201 1.0 4.0 0.00 0.00 0.00 63 980.8
20260903202837 93 330 0.0 2.0 0.00 0.00 0.00 61 981.1
20260903202333 93 113 1.0 3.0 0.00 0.00 0.00 62 980.9
20260903201832 93 109 1.0 3.0 0.00 0.00 0.00 63 981.1
20260903201328 93 89 3.0 4.0 0.00 0.00 0.00 62 981.3
20260903200826 93 153 0.0 3.0 0.00 0.00 0.00 61 981.3
20260903200322 92 159 0.0 1.0 0.00 0.00 0.00 68 981.4
20260903195817 91 123 1.0 1.0 0.00 0.00 0.00 70 981.5
20260903195313 93 215 0.0 4.0 0.00 0.00 0.00 61 981.5
20260903194808 93 145 3.0 4.0 0.00 0.00 0.00 62 981.4
20260903194304 93 133 3.0 4.0 0.00 0.00 0.00 65 981.7
20260903193800 93 51 1.0 2.0 0.00 0.00 0.00 62 981.8
20260903193255 92 55 2.0 3.0 0.00 0.00 0.00 62 981.8
20260903192751 92 287 4.0 4.0 0.00 0.00 0.00 62 981.9
20260903192246 91 251 3.0 3.0 0.00 0.00 0.00 63 981.8
20260903191743 91 144 4.0 4.0 0.00 0.00 0.00 61 981.9
20260903191238 92 181 2.0 6.0 0.00 0.00 0.00 63 981.9
20260903190733 93 115 2.0 6.0 0.00 0.00 0.00 63 982.1
20260903190232 92 109 2.0 6.0 0.00 0.00 0.00 62 982.1
20260903185727 91 331 2.0 2.0 0.00 0.00 0.00 67 982.3
20260903185221 91 281 0.0 1.0 0.00 0.00 0.00 70 982.4
20260903184718 91 140 2.0 3.0 0.00 0.00 0.00 66 982.4
20260903184214 92 274 2.0 3.0 0.00 0.00 0.00 65 982.4
20260903183714 93 101 3.0 4.0 0.00 0.00 0.00 63 982.5
20260903183208 93 186 2.0 2.0 0.00 0.00 0.00 61 982.7
20260903182707 92 149 1.0 2.0 0.00 0.00 0.00 62 982.7
20260903182204 92 110 3.0 3.0 0.00 0.00 0.00 63 982.7
20260903181702 92 214 1.0 2.0 0.00 0.00 0.00 62 982.5
20260903181156 91 213 3.0 4.0 0.00 0.00 0.00 65 982.6
20260903180652 91 44 4.0 4.0 0.00 0.00 0.00 66 982.6
20260903180152 91 7 1.0 4.0 0.00 0.00 0.00 64 982.5
20260903175650 90 36 0.0 1.0 0.00 0.00 0.00 66 982.5
20260903175145 91 333 1.0 2.0 0.00 0.00 0.00 64 982.7
20260903174645 91 332 0.0 6.0 0.00 0.00 0.00 65 982.8
20260903174140 91 113 2.0 4.0 0.00 0.00 0.00 65 982.8
20260903173635 92 237 2.0 2.0 0.00 0.00 0.00 66 982.8
20260903173131 91 107 1.0 2.0 0.00 0.00 0.00 66 982.9
20260903172625 91 63 1.0 2.0 0.00 0.00 0.00 66 982.9
20260903172120 91 158 1.0 3.0 0.00 0.00 0.00 65 982.9
20260903171620 91 199 3.0 6.0 0.00 0.00 0.00 68 983.0
20260903171116 91 73 1.0 4.0 0.00 0.00 0.00 67 983.0
20260903170615 90 104 1.0 4.0 0.00 0.00 0.00 69 983.0
20260903170111 90 110 2.0 4.0 0.00 0.00 0.00 69 983.0
20260903165608 90 276 2.0 4.0 0.00 0.00 0.00 68 983.3
20260903165104 90 133 1.0 3.0 0.00 0.00 0.00 68 983.1
20260903164559 90 327 2.0 3.0 0.00 0.00 0.00 67 983.4
20260903164054 90 69 3.0 4.0 0.00 0.00 0.00 68 983.3
20260903163549 90 171 1.0 2.0 0.00 0.00 0.00 72 983.4
20260903163045 90 116 2.0 3.0 0.00 0.00 0.00 69 983.4
20260903162541 89 159 4.0 4.0 0.00 0.00 0.00 70 983.4
20260903162037 89 146 4.0 8.0 0.00 0.00 0.00 71 983.5
20260903161532 89 112 3.0 4.0 0.00 0.00 0.00 70 983.7
20260903161028 89 172 4.0 6.0 0.00 0.00 0.00 72 983.5
20260903160527 89 115 3.0 4.0 0.00 0.00 0.00 70 983.5
20260903160021 89 115 1.0 6.0 0.00 0.00 0.00 71 983.6
20260903155520 88 112 4.0 6.0 0.00 0.00 0.00 73 983.6
20260903155016 89 108 4.0 6.0 0.00 0.00 0.00 70 984.0
20260903154512 88 119 2.0 4.0 0.00 0.00 0.00 72 983.8
20260903154008 88 121 3.0 6.0 0.00 0.00 0.00 73 983.9
20260903153502 88 109 2.0 4.0 0.00 0.00 0.00 73 983.8
20260903152959 88 84 0.0 4.0 0.00 0.00 0.00 73 983.9
20260903152454 88 110 2.0 4.0 0.00 0.00 0.00 74 983.8
20260903151951 87 107 2.0 3.0 0.00 0.00 0.00 76 983.9
20260903151450 87 119 2.0 6.0 0.00 0.00 0.00 75 983.7
20260903150945 86 114 1.0 3.0 0.00 0.00 0.00 77 983.9
20260903150439 86 111 1.0 3.0 0.00 0.00 0.00 77 983.8
20260903145934 86 75 2.0 2.0 0.00 0.00 0.00 77 983.9
20260903145430 85 117 3.0 4.0 0.00 0.00 0.00 77 983.9
20260903144930 85 104 2.0 3.0 0.00 0.00 0.00 77 983.9
20260903144429 85 105 2.0 3.0 0.00 0.00 0.00 78 983.8
20260903143925 85 118 2.0 2.0 0.00 0.00 0.00 78 984.0
20260903143421 84 118 1.0 3.0 0.00 0.00 0.00 80 983.9
20260903142917 84 115 1.0 3.0 0.00 0.00 0.00 80 983.9
20260903142412 84 239 0.0 2.0 0.00 0.00 0.00 77 983.9
20260903141908 84 105 2.0 3.0 0.00 0.00 0.00 81 983.8
20260903141404 83 127 1.0 4.0 0.00 0.00 0.00 80 983.8
20260903140859 83 174 2.0 2.0 0.00 0.00 0.00 81 983.9
20260903140354 83 113 2.0 3.0 0.00 0.00 0.00 81 983.7
20260903135850 83 114 1.0 2.0 0.00 0.00 0.00 82 983.6
20260903135346 82 78 0.0 2.0 0.00 0.00 0.00 85 983.7
20260903134844 82 117 1.0 2.0 0.00 0.00 0.00 85 983.8
20260903134339 81 87 1.0 1.0 0.00 0.00 0.00 85 984.0
20260903133837 80 92 1.0 2.0 0.00 0.00 0.00 87 983.9
20260903133334 79 66 2.0 2.0 0.00 0.00 0.00 91 983.7
20260903132833 78 66 2.0 2.0 0.00 0.00 0.00 91 984.0
20260903132330 78 56 0.0 0.0 0.00 0.00 0.00 91 984.1
20260903131824 77 71 0.0 0.0 0.00 0.00 0.00 92 984.0
20260903131324 76 72 0.0 0.0 0.00 0.00 0.00 92 984.3
20260903130823 76 70 0.0 0.0 0.00 0.00 0.00 92 984.1
20260903130318 76 71 0.0 1.0 0.00 0.00 0.00 92 984.0
20260903125817 75 71 0.0 1.0 0.00 0.00 0.00 93 984.0
20260903125312 75 71 0.0 1.0 0.00 0.00 0.00 93 984.2
20260903124811 76 134 0.0 0.0 0.00 0.00 0.00 91 984.0
20260903124307 74 134 0.0 0.0 0.00 0.00 0.00 94 983.9
20260903123805 72 134 0.0 0.0 0.00 0.00 0.00 96 984.1
20260903123305 71 145 0.0 0.0 0.00 0.00 0.00 99 984.2
20260903122804 71 227 0.0 0.0 0.00 0.00 0.00 99 984.2
20260903122259 69 227 0.0 0.0 0.00 0.00 0.00 99 984.2
20260903121756 70 229 0.0 0.0 0.00 0.00 0.00 99 984.1
20260903121253 69 229 0.0 0.0 0.00 0.00 0.00 99 984.3
20260903120748 68 229 0.0 0.0 0.00 0.00 0.00 99 984.1
20260903120241 67 229 0.0 0.0 0.00 0.00 0.00 99 984.2
20260903115741 66 229 0.0 0.0 0.00 0.00 0.00 99 984.1
20260903115236 66 229 0.0 0.0 0.00 0.00 0.00 99 983.9
20260903114736 66 229 0.0 0.0 0.00 0.00 0.00 99 984.2
20260903114232 66 229 0.0 0.0 0.00 0.00 0.00 99 984.1
20260903113727 66 229 0.0 0.0 0.00 0.00 0.00 99 984.1
20260903113223 66 229 0.0 0.0 0.00 0.00 0.00 99 984.3
20260903112719 65 229 0.0 0.0 0.00 0.00 0.00 99 984.1
20260903112214 65 229 0.0 0.0 0.00 0.00 0.00 99 984.0
20260903111712 65 229 0.0 0.0 0.00 0.00 0.00 99 984.1
20260903111208 65 229 0.0 0.0 0.00 0.00 0.00 99 984.0
20260903110659 65 229 0.0 0.0 0.00 0.00 0.00 99 983.9
20260903110154 65 229 0.0 0.0 0.00 0.00 0.00 99 983.9
20260903105653 65 229 0.0 0.0 0.00 0.00 0.00 99 983.8
20260903105148 65 229 0.0 0.0 0.00 0.00 0.00 99 983.7
20260903104648 65 229 0.0 0.0 0.00 0.00 0.00 99 983.6
20260903104143 65 229 0.0 0.0 0.00 0.00 0.00 99 983.5
20260903103640 65 229 0.0 0.0 0.00 0.00 0.00 99 983.5
20260903103136 65 229 0.0 0.0 0.00 0.00 0.00 99 983.5
20260903102631 65 229 0.0 0.0 0.00 0.00 0.00 99 983.5
20260903102130 66 229 0.0 0.0 0.00 0.00 0.00 99 983.4
20260903101629 66 229 0.0 0.0 0.00 0.00 0.00 99 983.6
20260903101126 66 229 0.0 0.0 0.00 0.00 0.00 99 983.5
20260903100625 65 229 0.0 0.0 0.00 0.00 0.00 99 983.4
20260903100125 65 229 0.0 0.0 0.00 0.00 0.00 99 983.3
20260903095622 66 229 0.0 0.0 0.00 0.00 0.00 99 983.3
20260903095122 66 229 0.0 0.0 0.00 0.00 0.00 99 983.3
20260903094617 66 229 0.0 0.0 0.00 0.00 0.00 99 983.3
20260903094113 66 229 0.0 0.0 0.00 0.00 0.00 99 983.2
20260903093608 66 229 0.0 0.0 0.00 0.00 0.00 99 983.1
20260903093103 66 229 0.0 0.0 0.00 0.00 0.00 99 983.4
20260903092602 66 229 0.0 0.0 0.00 0.00 0.00 99 983.4
20260903092057 66 229 0.0 0.0 0.00 0.00 0.00 99 983.3
20260903091555 66 229 0.0 0.0 0.00 0.00 0.00 99 983.2
20260903091050 66 229 0.0 0.0 0.00 0.00 0.00 99 983.2
20260903090546 66 229 0.0 0.0 0.00 0.00 0.00 99 983.2
20260903090045 66 229 0.0 0.0 0.00 0.00 0.00 99 983.0
20260903085538 66 229 0.0 0.0 0.00 0.00 0.00 99 982.9
20260903085034 66 229 0.0 0.0 0.00 0.00 0.00 99 983.3
20260903084531 67 229 0.0 0.0 0.00 0.00 0.00 99 983.1
20260903084027 66 229 0.0 0.0 0.00 0.00 0.00 99 983.1
20260903083522 66 229 0.0 0.0 0.00 0.00 0.00 99 983.2
20260903083022 66 229 0.0 0.0 0.00 0.00 0.00 99 982.8
20260903082522 67 229 0.0 0.0 0.00 0.00 0.00 99 982.9
20260903082018 67 229 0.0 0.0 0.00 0.00 0.00 99 983.1
20260903081513 67 229 0.0 0.0 0.00 0.00 0.00 99 982.9
20260903081009 67 229 0.0 0.0 0.00 0.00 0.00 99 983.0
20260903080505 67 229 0.0 0.0 0.00 0.00 0.00 99 983.1
20260903080001 67 229 0.0 0.0 0.00 0.00 0.00 99 983.1
20260903075456 67 229 0.0 0.0 0.00 0.00 0.00 99 983.2
20260903074951 67 229 0.0 0.0 0.00 0.00 0.00 99 983.2
20260903074450 67 229 0.0 0.0 0.00 0.00 0.00 99 983.2
20260903073945 67 229 0.0 0.0 0.00 0.00 0.00 99 983.3
20260903073440 67 229 0.0 0.0 0.00 0.00 0.00 99 983.1
20260903072936 67 229 0.0 0.0 0.00 0.00 0.00 99 983.1
20260903072432 67 229 0.0 0.0 0.00 0.00 0.00 99 983.0
20260903071929 67 229 0.0 0.0 0.00 0.00 0.00 99 983.1
20260903071424 67 229 0.0 0.0 0.00 0.00 0.00 99 983.1
20260903070921 67 229 0.0 0.0 0.00 0.00 0.00 99 983.1
20260903070420 68 229 0.0 0.0 0.00 0.00 0.00 99 983.1
20260903065915 67 229 0.0 0.0 0.00 0.00 0.00 99 983.1
20260903065415 67 229 0.0 0.0 0.00 0.00 0.00 99 983.1
20260903064914 67 229 0.0 0.0 0.00 0.00 0.00 99 983.0
20260903064409 67 229 0.0 0.0 0.00 0.00 0.00 99 983.2
20260903063905 67 229 0.0 0.0 0.00 0.00 0.00 99 982.9
20260903063400 67 229 0.0 0.0 0.00 0.00 0.00 99 983.1
20260903062855 67 229 0.0 0.0 0.00 0.00 0.00 99 983.1
20260903062349 67 229 0.0 0.0 0.00 0.00 0.00 99 983.2
20260903061846 68 229 0.0 0.0 0.00 0.00 0.00 99 983.3
20260903061345 68 229 0.0 0.0 0.00 0.00 0.00 99 983.2
20260903060841 67 229 0.0 0.0 0.00 0.00 0.00 99 983.1
20260903060340 68 229 0.0 0.0 0.00 0.00 0.00 99 983.2
20260903055838 67 229 0.0 0.0 0.00 0.00 0.00 99 983.1
20260903055337 68 229 0.0 0.0 0.00 0.00 0.00 99 983.4
20260903054832 68 229 0.0 0.0 0.00 0.00 0.00 99 983.2
20260903054331 68 229 0.0 0.0 0.00 0.00 0.00 99 983.1
20260903053828 68 229 0.0 0.0 0.00 0.00 0.00 99 983.1
20260903053323 68 229 0.0 0.0 0.00 0.00 0.00 99 982.8
20260903052819 68 229 0.0 0.0 0.00 0.00 0.00 99 982.8
20260903052314 68 229 0.0 0.0 0.00 0.00 0.00 99 982.8
20260903051810 68 229 0.0 0.0 0.00 0.00 0.00 99 982.7
20260903051305 68 229 0.0 0.0 0.00 0.00 0.00 99 982.6
20260903050800 68 229 0.0 0.0 0.00 0.00 0.00 99 983.0
20260903050259 68 229 0.0 0.0 0.00 0.00 0.00 99 982.8
20260903045754 68 229 0.0 0.0 0.00 0.00 0.00 99 982.8
20260903045250 68 229 0.0 0.0 0.00 0.00 0.00 99 982.9
20260903044746 68 229 0.0 0.0 0.00 0.00 0.00 99 982.9
20260903044241 69 229 0.0 0.0 0.00 0.00 0.00 99 982.8
20260903043738 68 229 0.0 0.0 0.00 0.00 0.00 99 982.8
20260903043238 68 229 0.0 0.0 0.00 0.00 0.00 99 982.8
20260903042737 68 229 0.0 0.0 0.00 0.00 0.00 99 982.7
20260903042232 69 229 0.0 0.0 0.00 0.00 0.00 99 982.9
20260903041728 69 229 0.0 0.0 0.00 0.00 0.00 99 983.0
20260903041225 69 229 0.0 0.0 0.00 0.00 0.00 99 982.8
20260903040724 68 229 0.0 0.0 0.00 0.00 0.00 99 982.8
20260903040219 68 229 0.0 0.0 0.00 0.00 0.00 99 983.0
20260903035715 68 229 0.0 0.0 0.00 0.00 0.00 99 982.9
20260903035211 69 229 0.0 0.0 0.00 0.00 0.00 99 983.1
20260903034711 69 229 0.0 0.0 0.00 0.00 0.00 99 983.3
20260903034206 69 229 0.0 0.0 0.00 0.00 0.00 99 983.3
20260903033701 68 229 0.0 0.0 0.00 0.00 0.00 99 983.2
20260903033156 69 229 0.0 0.0 0.00 0.00 0.00 99 983.2
20260903032651 69 229 0.0 0.0 0.00 0.00 0.00 99 983.2
20260903032146 69 229 0.0 0.0 0.00 0.00 0.00 99 983.2
20260903031642 69 229 0.0 0.0 0.00 0.00 0.00 99 983.3
20260903031141 69 229 0.0 0.0 0.00 0.00 0.00 99 983.3
20260903030637 69 229 0.0 0.0 0.00 0.00 0.00 99 983.3
20260903030133 69 229 0.0 0.0 0.00 0.00 0.00 99 983.2
20260903025628 69 229 0.0 0.0 0.00 0.00 0.00 99 983.4
20260903025124 69 229 0.0 0.0 0.00 0.00 0.00 99 983.4
20260903024619 70 229 0.0 0.0 0.00 0.00 0.00 99 983.3
20260903024118 70 229 0.0 0.0 0.00 0.00 0.00 99 983.3
20260903023614 69 229 0.0 0.0 0.00 0.00 0.00 99 983.3
20260903023114 69 229 0.0 0.0 0.00 0.00 0.00 99 983.5
20260903022615 70 229 0.0 0.0 0.00 0.00 0.00 99 983.5
20260903022114 70 229 0.0 0.0 0.00 0.00 0.00 99 983.4
20260903021608 69 229 0.0 0.0 0.00 0.00 0.00 99 983.6
20260903021102 70 229 0.0 0.0 0.00 0.00 0.00 99 983.6
20260903020558 70 229 0.0 0.0 0.00 0.00 0.00 99 983.6
20260903020058 70 229 0.0 0.0 0.00 0.00 0.00 99 983.6
20260903015554 70 229 0.0 0.0 0.00 0.00 0.00 99 983.5
20260903015049 70 229 0.0 0.0 0.00 0.00 0.00 99 983.5
20260903014549 70 229 0.0 0.0 0.00 0.00 0.00 99 983.3
20260903014043 71 229 0.0 0.0 0.00 0.00 0.00 99 983.4
20260903013543 71 229 0.0 0.0 0.00 0.00 0.00 99 983.4
20260903013038 71 229 0.0 0.0 0.00 0.00 0.00 99 983.2
20260903012531 71 229 0.0 0.0 0.00 0.00 0.00 99 983.2
20260903012031 71 229 0.0 0.0 0.00 0.00 0.00 99 983.5
20260903011530 71 229 0.0 0.0 0.00 0.00 0.00 99 983.4
20260903011025 72 229 0.0 0.0 0.00 0.00 0.00 99 983.5
20260903010521 72 229 0.0 0.0 0.00 0.00 0.00 99 983.4
20260903010019 72 229 0.0 0.0 0.00 0.00 0.00 99 983.4
20260903005514 72 229 0.0 0.0 0.00 0.00 0.00 99 983.2
20260903005010 72 229 0.0 0.0 0.00 0.00 0.00 99 983.3
20260903004509 72 229 0.0 0.0 0.00 0.00 0.00 99 983.1
20260903004005 73 229 0.0 0.0 0.00 0.00 0.00 99 983.3
20260903003501 73 229 0.0 0.0 0.00 0.00 0.00 99 983.3
20260903002955 73 229 0.0 0.0 0.00 0.00 0.00 99 983.0
20260903002456 73 229 0.0 0.0 0.00 0.00 0.00 98 983.0
20260903001955 74 229 0.0 0.0 0.00 0.00 0.00 98 983.2
20260903001450 74 229 0.0 0.0 0.00 0.00 0.00 97 983.1
20260903000949 74 229 0.0 0.0 0.00 0.00 0.00 97 982.8
20260903000446 74 229 0.0 0.0 0.00 0.00 0.00 96 982.7
20260902235943 75 229 0.0 0.0 0.00 0.00 0.00 97 982.8
20260902235438 75 229 0.0 0.0 0.00 0.00 0.00 96 982.6
20260902234938 76 229 0.0 0.0 0.00 0.00 0.00 95 982.8
20260902234433 76 229 0.0 0.0 0.00 0.00 0.00 94 982.7
20260902233932 76 229 0.0 0.0 0.00 0.00 0.00 94 982.9
20260902233426 77 229 0.0 0.0 0.00 0.00 0.00 93 982.6
20260902232926 77 229 0.0 0.0 0.00 0.00 0.00 91 982.7
20260902232421 77 229 0.0 0.0 0.00 0.00 0.00 92 982.6
20260902231920 78 229 0.0 0.0 0.00 0.00 0.00 91 982.8
20260902231415 78 229 0.0 0.0 0.00 0.00 0.00 91 982.7
20260902230911 78 229 0.0 0.0 0.00 0.00 0.00 91 982.8
20260902230410 78 229 0.0 0.0 0.00 0.00 0.00 90 982.5
20260902225909 79 229 0.0 1.0 0.00 0.00 0.00 90 982.7
20260902225405 79 229 0.0 0.0 0.00 0.00 0.00 89 982.7
20260902224903 80 229 0.0 0.0 0.00 0.00 0.00 88 982.8
20260902224357 80 229 0.0 0.0 0.00 0.00 0.00 88 982.8
20260902223855 80 229 0.0 0.0 0.00 0.00 0.00 87 982.9
20260902223354 80 230 0.0 0.0 0.00 0.00 0.00 87 982.9
20260902222849 80 228 1.0 1.0 0.00 0.00 0.00 86 982.8
20260902222347 81 229 1.0 1.0 0.00 0.00 0.00 86 983.0
20260902221842 81 246 1.0 2.0 0.00 0.00 0.00 85 982.8
20260902221341 82 239 1.0 2.0 0.00 0.00 0.00 84 982.8
20260902220837 85 252 1.0 2.0 0.00 0.00 0.00 80 982.8
20260902220336 85 253 2.0 3.0 0.00 0.00 0.00 78 982.8
20260902215832 87 241 2.0 2.0 0.00 0.00 0.00 77 983.0
20260902215332 86 201 0.0 1.0 0.00 0.00 0.00 67 982.8
20260902214829 85 241 1.0 1.0 0.00 0.00 0.00 81 982.9
20260902214327 87 244 2.0 2.0 0.00 0.00 0.00 79 982.8
20260902213822 88 244 1.0 2.0 0.00 0.00 0.00 75 982.7
20260902213318 87 233 0.0 2.0 0.00 0.00 0.00 73 982.9
20260902212816 89 252 1.0 1.0 0.00 0.00 0.00 73 983.0
20260902212314 88 220 0.0 2.0 0.00 0.00 0.00 72 983.0